This demonstration page uses our WeatherBlox Daily Observations layout. Learn more.

Left ArrowRight Arrow

39.51506, -84.39828

Hourly Observations for April 6, 2017

Temp ( °F °C ) Dew Point ( °F °C ) Humidity (%) Winds ( mph kmh ) Pressure ( in mb ) Visibility ( mi km ) Precip ( " mm )
12:15 am 00:15 Cloudy 55 12.5 49 9.5 82 82 N 3 6 29.44 997 7 11 0.00 0.00
12:35 am 00:35 Cloudy 52 11.1 47 8.2 82 82 Calm 29.44 997 7 11 0.00 0.00
12:55 am 00:55 Cloudy with Light Rain 52 11.1 47 8.2 82 82 Calm 29.44 997 5 8 0.00 0.00
1:15 am 01:15 Cloudy with Haze 55 12.5 49 9.5 82 82 SW 5 7 29.44 997 5 8 0.00 0.00
1:35 am 01:35 Cloudy with Haze 55 12.5 49 9.5 82 82 S 5 7 29.44 997 5 8 0.00 0.00
1:55 am 01:55 Mostly Cloudy with Haze 55 12.5 49 9.6 83 83 S 7 11 29.44 997 4 6 0.00 0.00
2:15 am 02:15 Partly Cloudy 55 12.5 49 9.5 82 82 SSW 9 15 29.41 996 7 11 0.00 0.00
2:35 am 02:35 Partly Cloudy 55 12.5 48 8.8 78 78 SSW 12 19 29.41 996 10 16 0.00 0.00
2:55 am 02:55 Partly Cloudy 55 12.5 47 8.2 75 75 SSW 13 20 29.41 996 10 16 0.00 0.00
3:15 am 03:15 Partly Cloudy 55 12.5 47 8.1 75 75 SSW 12 19 29.41 996 10 16 0.00 0.00
3:35 am 03:35 Mostly Cloudy 55 12.5 46 8 74 74 SSW 12 19 29.41 996 10 16 0.00 0.00
3:55 am 03:55 Cloudy 55 12.5 46 7.5 72 72 SSW 13 20 29.41 996 10 16 0.00 0.00
4:15 am 04:15 Cloudy 55 12.5 46 7.5 72 72 SW 9 15 29.41 996 10 16 0.00 0.00
4:35 am 04:35 Cloudy 55 12.5 46 7.7 73 73 SW 10 17 29.41 996 10 16 0.00 0.00
4:55 am 04:55 Cloudy with Drizzle 55 12.5 47 8.5 77 77 SW 10 17 29.38 995 5 8 0.00 0.00
5:15 am 05:15 Cloudy with Rain 55 12.5 48 9 79 79 SSW 8 13 29.38 995 5 8 0.00 0.00
5:35 am 05:35 Cloudy with Light Rain 55 12.5 49 9.2 80 80 SSW 10 17 29.38 995 7 11 0.00 0.00
5:55 am 05:55 Cloudy with Rain 52 11.1 46 7.6 79 79 W 10 17 29.41 996 4 6 0.00 0.00
6:15 am 06:15 Cloudy with Light Rain 49 9.6 44 6.5 81 81 W 12 19 29.44 997 5 8 0.00 0.00
6:35 am 06:35 Cloudy with Light Snow 49 9.6 43 6.2 80 80 WNW 12 19 29.44 997 4 6 0.00 0.00
6:55 am 06:55 Cloudy with Light Snow 49 9.6 43 6.3 80 80 WNW 10 17 29.44 997 5 8 0.00 0.00
7:15 am 07:15 Cloudy with Light Snow 49 9.6 44 6.5 81 81 WNW 7 11 29.47 998 5 8 0.00 0.00
7:35 am 07:35 Cloudy 49 9.6 43 6.2 80 80 WNW 5 7 29.47 998 10 16 0.00 0.00
7:55 am 07:55 Cloudy with Light Snow 48 9.1 42 5.6 79 79 WNW 6 9 29.50 999 5 8 0.00 0.00
8:15 am 08:15 Cloudy with Light Snow 47 8.3 41 5 80 80 W 7 11 29.50 999 5 8 0.00 0.00
8:35 am 08:35 Cloudy with Light Snow 45 7 38 3.4 78 78 NW 14 22 29.50 999 5 8 0.00 0.00
8:55 am 08:55 Cloudy 43 6.3 37 2.9 79 79 WNW 8 13 29.53 1000 10 16 0.00 0.00
9:15 am 09:15 Cloudy 43 6.2 37 2.6 78 78 WNW 9 15 29.53 1000 10 16 0.00 0.00
9:35 am 09:35 Cloudy 43 6.1 37 2.5 78 78 WNW 12 19 29.53 1000 7 11 0.00 0.00
9:55 am 09:55 Cloudy 43 5.9 35 1.9 76 76 WNW 12 19 29.56 1001 10 16 0.00 0.00
10:15 am 10:15 Cloudy 42 5.5 34 1.3 75 75 WNW 12 19 29.56 1001 10 16 0.00 0.00
10:35 am 10:35 Cloudy 42 5.5 34 1.2 74 74 WNW 13 20 29.56 1001 10 16 0.00 0.00
10:55 am 10:55 Cloudy 42 5.5 34 1.1 74 74 WNW 13 20 29.59 1002 10 16 0.00 0.00
11:15 am 11:15 Cloudy with Haze 42 5.5 35 1.7 77 77 W 10 17 29.59 1002 4 6 0.00 0.00
11:35 am 11:35 Cloudy 42 5.5 34 1.1 74 74 WNW 15 24 29.59 1002 7 11 0.00 0.00
11:55 am 11:55 Cloudy 42 5.7 35 1.4 74 74 WNW 13 20 29.59 1002 10 16 0.00 0.00
12:15 pm 12:15 Cloudy 43 6 35 1.4 73 73 WNW 14 22 29.59 1002 7 11 0.00 0.00
12:35 pm 12:35 Cloudy 43 6.1 34 1.1 71 71 NW 15 24 29.62 1003 7 11 0.00 0.00
12:55 pm 12:55 Cloudy 43 6.1 33 0.5 68 68 W 12 19 29.62 1003 10 16 0.00 0.00
1:15 pm 13:15 Cloudy 47 8.2 35 1.4 63 63 WNW 17 28 29.62 1003 10 16 0.00 0.00
1:35 pm 13:35 Cloudy with Haze 45 7.1 35 1.8 69 69 WNW 10 17 29.62 1003 5 8 0.00 0.00
1:55 pm 13:55 Cloudy 45 7.2 35 1.4 67 67 W 14 22 29.62 1003 10 16 0.00 0.00
2:15 pm 14:15 Cloudy 47 8.3 35 1.9 64 64 WNW 17 28 29.62 1003 10 16 0.00 0.00
2:35 pm 14:35 Cloudy 47 8.1 36 2 66 66 WNW 13 20 29.62 1003 7 11 0.00 0.00
2:55 pm 14:55 Cloudy 47 8.2 37 2.7 69 69 WNW 15 24 29.62 1003 10 16 0.00 0.00
3:15 pm 15:15 Cloudy with Haze 44 6.8 35 1.4 69 69 WNW 16 26 29.65 1004 5 8 0.00 0.00
3:35 pm 15:35 Cloudy 44 6.9 36 2.1 72 72 WNW 15 24 29.65 1004 10 16 0.00 0.00
3:55 pm 15:55 Cloudy 43 6.1 35 1.4 72 72 WNW 14 22 29.65 1004 7 11 0.00 0.00
4:15 pm 16:15 Cloudy 47 8.2 38 3.1 71 71 WNW 15 24 29.68 1005 10 16 0.00 0.00
4:35 pm 16:35 Cloudy 43 6.1 34 1.3 72 72 WNW 15 24 29.68 1005 7 11 0.00 0.00
4:55 pm 16:55 Cloudy with Light Snow 43 6.1 36 2 75 75 WNW 16 26 29.68 1005 4 6 0.00 0.00
5:15 pm 17:15 Windy with Snow Likely 42 5.5 35 1.6 76 76 NW 20 31 29.71 1006 3 5 0.00 0.00
5:35 pm 17:35 Cloudy with Light Snow 42 5.5 35 1.8 77 77 WNW 13 20 29.71 1006 4 6 0.00 0.00
5:55 pm 17:55 Windy with Snow Likely 42 5.5 35 1.8 77 77 WNW 21 33 29.74 1007 3 4 0.00 0.00
6:15 pm 18:15 Cloudy 42 5.5 36 2 78 78 WNW 15 24 29.74 1007 7 11 0.00 0.00
6:35 pm 18:35 Cloudy 42 5.5 35 1.4 75 75 WNW 16 26 29.77 1008 7 11 0.00 0.00
6:55 pm 18:55 Cloudy 42 5.8 34 1.1 72 72 WNW 12 19 29.77 1008 10 16 0.00 0.00
7:15 pm 19:15 Cloudy 43 6 34 1 71 71 WNW 14 22 29.77 1008 10 16 0.00 0.00
7:35 pm 19:35 Cloudy 43 6.1 33 0.5 68 68 WNW 14 22 29.80 1009 10 16 0.00 0.00
7:55 pm 19:55 Cloudy 43 6.2 32 0 65 65 WNW 15 24 29.80 1009 10 16 0.00 0.00
8:15 pm 20:15 Cloudy 43 6.1 32 0.1 66 66 WNW 18 30 29.80 1009 10 16 0.00 0.00
8:35 pm 20:35 Cloudy 43 6.1 32 0 65 65 WNW 14 22 29.83 1010 10 16 0.00 0.00
8:55 pm 20:55 Cloudy 42 5.7 32 0 67 67 WNW 21 33 29.83 1010 10 16 0.00 0.00
9:15 pm 21:15 Cloudy 42 5.7 31 -0.4 65 65 WNW 17 28 29.85 1011 10 16 0.00 0.00
9:35 pm 21:35 Cloudy 42 5.5 32 -0.1 68 68 WNW 16 26 29.85 1011 N/A 0.00 0.00
9:55 pm 21:55 Cloudy 42 5.5 31 -0.4 66 66 WNW 16 26 29.85 1011 N/A 0.00 0.00
10:15 pm 22:15 Cloudy 42 5.5 32 -0.1 68 68 WNW 13 20 29.85 1011 N/A 0.00 0.00
10:35 pm 22:35 Cloudy 42 5.5 31 -0.7 65 65 WNW 15 24 29.85 1011 N/A 0.00 0.00
10:55 pm 22:55 Cloudy 41 5.1 31 -0.7 66 66 WNW 13 20 29.85 1011 N/A 0.00 0.00
11:15 pm 23:15 Cloudy 40 4.7 31 -0.7 68 68 WNW 17 28 29.85 1011 N/A 0.00 0.00
11:35 pm 23:35 Cloudy 40 4.7 31 -0.5 69 69 WNW 12 19 29.85 1011 N/A 0.00 0.00
11:55 pm 23:55 Cloudy 40 4.7 31 -0.6 69 69 WNW 13 20 29.85 1011 N/A 0.00 0.00

Powered by AerisWeather